| time (UTC) | temp C | wind direction | speed KPH | gust KPH | rain 1hr cm | rain 24hr cm | rain mn cm | humidity % | barometer mb |
| 20260505063826 | 16 | 205 | 0.0 | 1.6 | 0.00 | 0.00 | 0.00 | 68 | 1011.0 |
| 20260505062839 | 16 | 205 | 0.0 | 1.6 | 0.00 | 0.00 | 0.00 | 69 | 1011.1 |
| 20260505061829 | 16 | 205 | 0.0 | 4.8 | 0.00 | 0.00 | 0.00 | 69 | 1011.2 |
| 20260505060841 | 16 | 204 | 0.0 | 3.2 | 0.00 | 0.00 | 0.00 | 67 | 1011.3 |
| 20260505055856 | 16 | 204 | 1.6 | 4.8 | 0.00 | 0.00 | 0.00 | 67 | 1011.3 |
| 20260505054817 | 16 | 196 | 1.6 | 3.2 | 0.00 | 0.00 | 0.00 | 66 | 1011.2 |
| 20260505053827 | 16 | 176 | 0.0 | 0.0 | 0.00 | 0.00 | 0.00 | 66 | 1011.2 |
| 20260505052818 | 16 | 178 | 0.0 | 0.0 | 0.00 | 0.00 | 0.00 | 66 | 1011.1 |
| 20260505051825 | 16 | 177 | 0.0 | 0.0 | 0.00 | 0.00 | 0.00 | 65 | 1011.1 |
| 20260505050817 | 16 | 175 | 0.0 | 0.0 | 0.00 | 0.00 | 0.00 | 65 | 1011.1 |
| 20260505040819 | 16 | 166 | 3.2 | 8.0 | 0.00 | 0.00 | 0.00 | 62 | 1010.9 |
| 20260505035824 | 16 | 161 | 4.8 | 8.0 | 0.00 | 0.00 | 0.00 | 62 | 1010.8 |
| 20260505034815 | 16 | 178 | 3.2 | 6.4 | 0.00 | 0.00 | 0.00 | 62 | 1010.7 |
| 20260505033826 | 16 | 175 | 3.2 | 6.4 | 0.00 | 0.00 | 0.00 | 62 | 1010.7 |
| 20260505032838 | 16 | 180 | 3.2 | 6.4 | 0.00 | 0.00 | 0.00 | 62 | 1010.7 |
| 20260505031829 | 16 | 180 | 3.2 | 4.8 | 0.00 | 0.00 | 0.00 | 62 | 1010.7 |
| 20260505030822 | 16 | 178 | 3.2 | 4.8 | 0.00 | 0.00 | 0.00 | 62 | 1010.8 |
| 20260505025826 | 16 | 178 | 3.2 | 4.8 | 0.00 | 0.00 | 0.00 | 63 | 1010.8 |
| 20260505024817 | 16 | 178 | 1.6 | 6.4 | 0.00 | 0.00 | 0.00 | 63 | 1010.9 |
| 20260505023828 | 16 | 178 | 3.2 | 6.4 | 0.00 | 0.00 | 0.00 | 64 | 1010.9 |
| 20260505022840 | 16 | 177 | 3.2 | 4.8 | 0.00 | 0.00 | 0.00 | 64 | 1010.8 |
| 20260505021832 | 16 | 178 | 3.2 | 4.8 | 0.00 | 0.00 | 0.00 | 63 | 1010.8 |
| 20260505020846 | 16 | 179 | 3.2 | 6.4 | 0.00 | 0.00 | 0.00 | 63 | 1010.8 |
| 20260505015826 | 16 | 180 | 3.2 | 6.4 | 0.00 | 0.00 | 0.00 | 63 | 1010.9 |
| 20260505014819 | 16 | 180 | 3.2 | 4.8 | 0.00 | 0.00 | 0.00 | 61 | 1010.9 |
| 20260505013831 | 16 | 181 | 3.2 | 4.8 | 0.00 | 0.00 | 0.00 | 60 | 1011.0 |
| 20260505012815 | 17 | 181 | 3.2 | 6.4 | 0.00 | 0.00 | 0.00 | 59 | 1010.9 |
| 20260505011827 | 17 | 182 | 4.8 | 6.4 | 0.00 | 0.00 | 0.00 | 58 | 1010.7 |
| 20260505010850 | 17 | 182 | 3.2 | 8.0 | 0.00 | 0.00 | 0.00 | 57 | 1010.5 |
| 20260505005817 | 17 | 182 | 4.8 | 8.0 | 0.00 | 0.00 | 0.00 | 57 | 1010.4 |
| 20260505004828 | 17 | 178 | 4.8 | 8.0 | 0.00 | 0.00 | 0.00 | 57 | 1010.4 |
| 20260505003840 | 17 | 179 | 4.8 | 8.0 | 0.00 | 0.00 | 0.00 | 56 | 1010.4 |
| 20260505002822 | 17 | 176 | 4.8 | 8.0 | 0.00 | 0.00 | 0.00 | 56 | 1010.4 |
| 20260505001815 | 18 | 178 | 4.8 | 9.7 | 0.00 | 0.00 | 0.00 | 55 | 1010.3 |
| 20260505000828 | 18 | 186 | 6.4 | 8.0 | 0.00 | 0.00 | 0.00 | 55 | 1010.4 |
| 20260504235834 | 18 | 178 | 6.4 | 9.7 | 0.00 | 0.00 | 0.00 | 54 | 1010.2 |
| 20260504234834 | 18 | 171 | 6.4 | 9.7 | 0.00 | 0.00 | 0.00 | 54 | 1010.2 |
| 20260504233818 | 18 | 176 | 4.8 | 9.7 | 0.00 | 0.00 | 0.00 | 53 | 1010.2 |
| 20260504232830 | 19 | 178 | 6.4 | 9.7 | 0.00 | 0.00 | 0.00 | 52 | 1010.2 |
| 20260504231821 | 20 | 175 | 6.4 | 11.3 | 0.00 | 0.00 | 0.00 | 51 | 1010.2 |
| 20260504230853 | 20 | 171 | 6.4 | 9.7 | 0.00 | 0.00 | 0.00 | 51 | 1010.2 |
| 20260504225817 | 20 | 165 | 6.4 | 8.0 | 0.00 | 0.00 | 0.00 | 50 | 1010.2 |
| 20260504224826 | 20 | 164 | 8.0 | 9.7 | 0.00 | 0.00 | 0.00 | 49 | 1010.2 |
| 20260504223818 | 21 | 167 | 6.4 | 9.7 | 0.00 | 0.00 | 0.00 | 49 | 1010.4 |
| 20260504222827 | 21 | 164 | 8.0 | 12.9 | 0.00 | 0.00 | 0.00 | 46 | 1010.2 |
| 20260504221821 | 22 | 162 | 8.0 | 11.3 | 0.00 | 0.00 | 0.00 | 46 | 1010.2 |
| 20260504220814 | 22 | 200 | 6.4 | 11.3 | 0.00 | 0.00 | 0.00 | 45 | 1010.2 |
| 20260504215821 | 22 | 194 | 3.2 | 8.0 | 0.00 | 0.00 | 0.00 | 43 | 1010.1 |
| 20260504214813 | 22 | 150 | 0.0 | 9.7 | 0.00 | 0.00 | 0.00 | 42 | 1010.2 |
| 20260504213828 | 22 | 139 | 6.4 | 12.9 | 0.00 | 0.00 | 0.00 | 44 | 1010.2 |
| 20260504212815 | 22 | 68 | 1.6 | 9.7 | 0.00 | 0.00 | 0.00 | 43 | 1010.2 |
| 20260504211837 | 22 | 195 | 3.2 | 11.3 | 0.00 | 0.00 | 0.00 | 43 | 1010.2 |
| 20260504210823 | 22 | 191 | 4.8 | 11.3 | 0.00 | 0.00 | 0.00 | 42 | 1010.2 |
| 20260504205838 | 22 | 234 | 6.4 | 11.3 | 0.00 | 0.00 | 0.00 | 43 | 1010.1 |
| 20260504204820 | 22 | 209 | 6.4 | 12.9 | 0.00 | 0.00 | 0.00 | 43 | 1010.2 |
| 20260504203832 | 22 | 173 | 4.8 | 11.3 | 0.00 | 0.00 | 0.00 | 44 | 1010.3 |
| 20260504202843 | 22 | 180 | 3.2 | 9.7 | 0.00 | 0.00 | 0.00 | 42 | 1010.5 |
| 20260504201814 | 22 | 194 | 6.4 | 9.7 | 0.00 | 0.00 | 0.00 | 41 | 1010.5 |
| 20260504200826 | 22 | 192 | 4.8 | 12.9 | 0.00 | 0.00 | 0.00 | 44 | 1010.7 |
| 20260504195831 | 22 | 216 | 4.8 | 17.7 | 0.00 | 0.00 | 0.00 | 43 | 1010.8 |
| 20260504194822 | 22 | 237 | 3.2 | 11.3 | 0.00 | 0.00 | 0.00 | 44 | 1010.9 |
| 20260504193815 | 22 | 190 | 4.8 | 17.7 | 0.00 | 0.00 | 0.00 | 43 | 1011.1 |
| 20260504192828 | 22 | 187 | 3.2 | 14.5 | 0.00 | 0.00 | 0.00 | 46 | 1011.3 |
| 20260504191844 | 22 | 218 | 6.4 | 16.1 | 0.00 | 0.00 | 0.00 | 43 | 1011.6 |
| 20260504190815 | 22 | 175 | 3.2 | 11.3 | 0.00 | 0.00 | 0.00 | 42 | 1011.7 |
| 20260504185822 | 21 | 161 | 4.8 | 17.7 | 0.00 | 0.00 | 0.00 | 42 | 1011.9 |
| 20260504184817 | 21 | 169 | 8.0 | 17.7 | 0.00 | 0.00 | 0.00 | 43 | 1012.0 |
| 20260504183846 | 21 | 116 | 6.4 | 16.1 | 0.00 | 0.00 | 0.00 | 44 | 1012.1 |
| 20260504182818 | 21 | 188 | 4.8 | 14.5 | 0.00 | 0.00 | 0.00 | 44 | 1012.2 |
| 20260504181816 | 21 | 216 | 4.8 | 12.9 | 0.00 | 0.00 | 0.00 | 43 | 1012.3 |
| 20260504180826 | 21 | 201 | 6.4 | 12.9 | 0.00 | 0.00 | 0.00 | 46 | 1012.3 |
| 20260504175831 | 21 | 186 | 4.8 | 14.5 | 0.00 | 0.00 | 0.00 | 44 | 1012.4 |
| 20260504174823 | 20 | 173 | 6.4 | 11.3 | 0.00 | 0.00 | 0.00 | 45 | 1012.5 |
| 20260504173835 | 20 | 191 | 4.8 | 11.3 | 0.00 | 0.00 | 0.00 | 47 | 1012.6 |
| 20260504172821 | 20 | 173 | 6.4 | 12.9 | 0.00 | 0.00 | 0.00 | 46 | 1012.7 |
| 20260504171835 | 20 | 194 | 4.8 | 16.1 | 0.00 | 0.00 | 0.00 | 45 | 1012.8 |
| 20260504170839 | 20 | 222 | 4.8 | 9.7 | 0.00 | 0.00 | 0.00 | 44 | 1013.0 |
| 20260504150817 | 17 | 123 | 3.2 | 12.9 | 0.00 | 0.00 | 0.00 | 48 | 1014.3 |
| 20260504140819 | 14 | 181 | 1.6 | 8.0 | 0.00 | 0.00 | 0.00 | 58 | 1014.7 |
| 20260504130820 | 11 | 191 | 3.2 | 8.0 | 0.00 | 0.00 | 0.00 | 65 | 1014.9 |
| 20260504081818 | 7 | 360 | 0.0 | 0.0 | 0.00 | 0.00 | 0.00 | 69 | 1015.6 |
| 20260504080830 | 7 | 360 | 0.0 | 0.0 | 0.00 | 0.00 | 0.00 | 68 | 1015.6 |